| time (UTC) | temp F | wind direction | speed knots | gust knots | rain 1hr in | rain 24hr in | rain mn in | humidity % | barometer mb |
| 20260504044551 | 37 | 138 | 0.0 | 0.0 | 0.00 | 0.00 | 0.00 | 88 | 1016.4 |
| 20260504043057 | 36 | 138 | 0.0 | 0.0 | 0.00 | 0.00 | 0.00 | 88 | 1016.3 |
| 20260504041546 | 37 | 138 | 0.0 | 0.0 | 0.00 | 0.00 | 0.00 | 87 | 1016.3 |
| 20260504040043 | 38 | 138 | 0.0 | 0.0 | 0.00 | 0.00 | 0.00 | 85 | 1016.2 |
| 20260504034542 | 38 | 138 | 0.0 | 0.0 | 0.00 | 0.00 | 0.00 | 85 | 1016.1 |
| 20260504033040 | 39 | 138 | 0.0 | 0.0 | 0.00 | 0.00 | 0.00 | 82 | 1016.0 |
| 20260504031540 | 39 | 138 | 0.0 | 0.0 | 0.00 | 0.00 | 0.00 | 83 | 1015.8 |
| 20260504030038 | 40 | 138 | 0.0 | 0.0 | 0.00 | 0.00 | 0.00 | 79 | 1015.7 |
| 20260504024537 | 41 | 138 | 0.0 | 0.0 | 0.00 | 0.00 | 0.00 | 79 | 1015.8 |
| 20260504023039 | 41 | 138 | 0.0 | 0.0 | 0.00 | 0.00 | 0.00 | 77 | 1015.6 |
| 20260504021537 | 42 | 138 | 0.0 | 0.0 | 0.00 | 0.00 | 0.00 | 76 | 1015.6 |
| 20260504020053 | 43 | 138 | 0.0 | 0.0 | 0.00 | 0.00 | 0.00 | 73 | 1015.5 |
| 20260504014553 | 44 | 138 | 0.0 | 0.0 | 0.00 | 0.00 | 0.00 | 71 | 1015.5 |
| 20260504013044 | 45 | 138 | 0.0 | 0.0 | 0.00 | 0.00 | 0.00 | 72 | 1015.5 |
| 20260504011536 | 46 | 138 | 0.0 | 0.0 | 0.00 | 0.00 | 0.00 | 69 | 1015.1 |
| 20260504010039 | 47 | 138 | 0.0 | 0.0 | 0.00 | 0.00 | 0.00 | 65 | 1015.1 |
| 20260504004543 | 50 | 138 | 0.0 | 0.0 | 0.00 | 0.00 | 0.00 | 56 | 1014.9 |
| 20260504003034 | 51 | 138 | 0.0 | 0.0 | 0.00 | 0.00 | 0.00 | 59 | 1014.7 |
| 20260504001545 | 53 | 138 | 0.0 | 0.0 | 0.00 | 0.00 | 0.00 | 46 | 1014.7 |
| 20260504000032 | 54 | 138 | 0.0 | 0.0 | 0.00 | 0.00 | 0.00 | 44 | 1014.5 |
| 20260503234531 | 55 | 137 | 0.0 | 0.9 | 0.00 | 0.00 | 0.00 | 46 | 1014.4 |
| 20260503233038 | 56 | 134 | 0.0 | 0.0 | 0.00 | 0.00 | 0.00 | 40 | 1014.1 |
| 20260503231531 | 57 | 61 | 0.0 | 1.7 | 0.00 | 0.00 | 0.00 | 41 | 1014.0 |
| 20260503230029 | 57 | 325 | 0.0 | 6.1 | 0.00 | 0.00 | 0.00 | 38 | 1014.1 |
| 20260503224529 | 58 | 257 | 1.7 | 6.1 | 0.00 | 0.00 | 0.00 | 38 | 1014.3 |
| 20260503223029 | 58 | 70 | 0.0 | 4.3 | 0.00 | 0.00 | 0.00 | 39 | 1014.1 |
| 20260503221528 | 58 | 333 | 0.0 | 8.7 | 0.00 | 0.00 | 0.00 | 36 | 1014.0 |
| 20260503220040 | 58 | 10 | 0.9 | 7.0 | 0.00 | 0.00 | 0.00 | 36 | 1014.3 |
| 20260503214526 | 58 | 15 | 0.9 | 10.4 | 0.00 | 0.00 | 0.00 | 36 | 1014.0 |
| 20260503213025 | 59 | 306 | 2.6 | 7.0 | 0.00 | 0.00 | 0.00 | 36 | 1014.0 |
| 20260503211524 | 58 | 9 | 0.9 | 13.9 | 0.00 | 0.00 | 0.00 | 36 | 1014.0 |
| 20260503210022 | 58 | 348 | 0.9 | 5.2 | 0.00 | 0.00 | 0.00 | 35 | 1014.1 |
| 20260503204520 | 58 | 63 | 0.0 | 8.7 | 0.00 | 0.00 | 0.00 | 34 | 1014.0 |
| 20260503203041 | 58 | 27 | 0.9 | 15.6 | 0.00 | 0.00 | 0.00 | 33 | 1014.0 |
| 20260503201519 | 58 | 332 | 0.0 | 7.0 | 0.00 | 0.00 | 0.00 | 34 | 1014.2 |
| 20260503200017 | 58 | 49 | 2.6 | 8.7 | 0.00 | 0.00 | 0.00 | 33 | 1014.5 |
| 20260503194531 | 58 | 267 | 3.5 | 10.4 | 0.00 | 0.00 | 0.00 | 34 | 1014.7 |
| 20260503193014 | 58 | 215 | 3.5 | 12.2 | 0.00 | 0.00 | 0.00 | 35 | 1014.9 |
| 20260503191510 | 57 | 330 | 3.5 | 13.0 | 0.00 | 0.00 | 0.00 | 35 | 1015.0 |
| 20260503190008 | 58 | 22 | 2.6 | 19.1 | 0.00 | 0.00 | 0.00 | 35 | 1015.2 |
| 20260503184504 | 57 | 26 | 4.3 | 13.0 | 0.00 | 0.00 | 0.00 | 36 | 1015.2 |
| 20260503183001 | 56 | 214 | 1.7 | 5.2 | 0.00 | 0.00 | 0.00 | 37 | 1015.4 |
| 20260503181605 | 56 | 355 | 1.7 | 8.7 | 0.00 | 0.00 | 0.00 | 39 | 1015.5 |
| 20260503180056 | 56 | 274 | 3.5 | 12.2 | 0.00 | 0.00 | 0.00 | 41 | 1015.4 |
| 20260503174553 | 55 | 360 | 5.2 | 13.0 | 0.00 | 0.00 | 0.00 | 38 | 1015.6 |
| 20260503173050 | 55 | 314 | 0.9 | 9.6 | 0.00 | 0.00 | 0.00 | 38 | 1015.8 |
| 20260503171548 | 54 | 9 | 4.3 | 12.2 | 0.00 | 0.00 | 0.00 | 37 | 1015.9 |
| 20260503081524 | 40 | 15 | 0.0 | 3.5 | 0.00 | 0.00 | 0.00 | 73 | 1014.1 |
| 20260503071506 | 41 | 340 | 0.9 | 7.0 | 0.00 | 0.00 | 0.00 | 72 | 1013.7 |
| 20260503060116 | 42 | 9 | 0.9 | 5.2 | 0.00 | 0.01 | 0.00 | 73 | 1013.6 |
| 20260503054605 | 42 | 14 | 3.5 | 8.7 | 0.00 | 0.01 | 0.00 | 73 | 1013.8 |